Simultaneous Nadir Overpasses (SNOs) Predictions

Prediction of SNOs between GOES-17 and NOAA-21 Satellite Orbit:

Table of predicted SNOs for the next 14.0 days since TLE Epoch: 6/14/2024
Index Date Time (GOES-17) GOES-17 Lat,Lon NOAA-21 Lat,Lon Distance(km) Time Diff (sec)
1 06/16/2024 08:32:30 0.02,-104.71 0.43,-106.58 212.74 80
2 06/17/2024 08:11:07 0.02,-104.71 -0.57,-102.05 303.29 80
3 06/18/2024 20:33:06 0.02,-104.71 -0.57,-107.36 302.71 80
4 06/19/2024 20:17:03 0.02,-104.71 0.44,-102.84 213.23 80
5 06/21/2024 08:38:52 -0.02,-104.70 0.74,-108.11 388.04 80
6 06/22/2024 08:17:28 -0.02,-104.70 -0.27,-103.58 127.61 80
7 06/23/2024 20:39:27 0.01,-104.69 -0.92,-108.88 478.03 80
8 06/24/2024 20:23:23 0.00,-104.69 0.09,-104.36 37.90 80
9 06/27/2024 08:23:48 0.01,-104.68 0.12,-105.09 47.17 80
10 06/28/2024 08:07:45 0.02,-104.68 -0.90,-100.56 468.87 80
